This is the latest recevied weather packets stored in our database for station/object OE5MMP-13. If no packets are shown the sender has not sent any weather packets the latest 10 day(s).
| Time | Temp. | Humidity | Pressure | Rain* | Wind** | Luminosity | Snow |
|---|---|---|---|---|---|---|---|
| 1788608594 | 18.33° C | 71% | 1023.3 hPa | 0 mm | - | 674 W/m² | - |
| 1788607993 | 18.33° C | 72% | 1023.4 hPa | 0 mm | - | 397 W/m² | - |
| 1788607393 | 18.33° C | 70% | 1023.4 hPa | 0 mm | - | 323 W/m² | - |
| 1788606793 | 18.33° C | 72% | 1023.3 hPa | 0 mm | - | 247 W/m² | - |
| 1788606193 | 18.33° C | 71% | 1023.3 hPa | 0 mm | - | 328 W/m² | - |
| 1788605593 | 18.33° C | 71% | 1023.3 hPa | 0 mm | - | 405 W/m² | - |
| 1788604994 | 18.33° C | 72% | 1023.1 hPa | 0 mm | - | 368 W/m² | - |
| 1788604393 | 18.33° C | 73% | 1023 hPa | 0 mm | - | 458 W/m² | - |
| 1788603793 | 17.78° C | 77% | 1022.9 hPa | 0 mm | - | 295 W/m² | - |
| 1788603193 | 17.78° C | 78% | 1022.9 hPa | 0 mm | - | 315 W/m² | - |
| 1788602593 | 17.22° C | 78% | 1023.1 hPa | 0 mm | - | 274 W/m² | - |
| 1788601993 | 17.22° C | 80% | 1022.9 hPa | 0 mm | - | 259 W/m² | - |
| 1788601409 | 16.67° C | 80% | 1022.8 hPa | 0 mm | - | 317 W/m² | - |
| 1788600793 | 16.67° C | 83% | 1022.8 hPa | 0 mm | - | 318 W/m² | - |
| 1788600193 | 15.56° C | 85% | 1022.6 hPa | 0 mm | - | 686 W/m² | - |
| 1788599593 | 15° C | 85% | 1022.6 hPa | 0 mm | - | 458 W/m² | - |
| 1788598993 | 14.44° C | 85% | 1022.5 hPa | 0 mm | - | 232 W/m² | - |
| 1788598393 | 14.44° C | 86% | 1022.2 hPa | 0 mm | - | 166 W/m² | - |
| 1788597793 | 14.44° C | 86% | 1022.2 hPa | 0 mm | - | 74 W/m² | - |
| 1788597193 | 14.44° C | 87% | 1022.3 hPa | 0 mm | - | 103 W/m² | - |
| 1788596592 | 13.89° C | 87% | 1022.3 hPa | 0 mm | - | 53 W/m² | - |
| 1788595992 | 13.89° C | 88% | 1022.3 hPa | 0.25 mm | - | 65 W/m² | - |
| 1788595393 | 13.89° C | 88% | 1022.3 hPa | 0.51 mm | - | 35 W/m² | - |
| 1788594793 | 13.89° C | 88% | 1022.3 hPa | 1.27 mm | - | 21 W/m² | - |
| 1788594193 | 13.89° C | 88% | 1021.9 hPa | 1.52 mm | - | 39 W/m² | - |
* Rain latest hour (hover to see other rain measurements)
** Current wind speed in m/s (hover to see current wind gust speed)